Location: Larne
(54.8508°N, 5.8183°W)
Time: 12:40:13
(UTC+01:00)

ISS - Pass Details

Date: 27 September 2021
Orbit: 417 x 423 km, 51.6° (Epoch: 16 October)

Event Time Altitude Azimuth Distance (km) Brightness Sun altitude
Rises 20:40:49 0° 269° (W) 2,365 1.6 -13.9°
Reaches altitude 10° 20:42:58 10° 263° (W) 1,501 0.1 -14.2°
Maximum altitude 20:46:11 44° 190° (S) 597 -3.1 -14.7°
Enters shadow 20:47:27 29° 138° (SE) 808 -2.8 -14.8°
